Weather in Kurskoe

Russia / Republic of Crimea     45°01′31″N   34°56′06″E
temp.,
°C
wind,
m/s
gust,
m/s
humid.,
%
clouds,
%
prec.,
mm/h
press.,
hPa
HPBL,
m
23 october, sat
sat2300:00+12ne018189 0.0 101811
03:00+11s118292 0.0 101810
06:00+11sw1173100 0.0 101810
09:00+14s1157100 0.0 101854
12:00+18sw1244100 0.0 1018631
15:00+20w4547100 0.0 10171274
18:00+15wnw127292 0.0 101840
21:00+13nw238243 0.0 101955
24 october, sun
sun2400:00+11n3588100 0.0 1020378
03:00+11n2493100 0.5 1020279
06:00+10nnw3592100 0.1 1020342
09:00+9nnw4788100 2.7 1022658
12:00+8nnw6879100 4.1 1023861
15:00+9nnw6870100 5.1 10221138
18:00+8nnw4858100 0.0 1024440
21:00+6wnw38618 0.0 1026203
25 october, mon
mon2500:00+5wnw410676 0.0 1027306
03:00+4nw387681 0.0 1028364
06:00+3nw410758 0.0 1029365
09:00+4nw597714 0.0 1031725
12:00+7nnw675411 0.0 10311181
15:00+7n56485 0.0 10311161
18:00+4nne24620 0.0 1032103
21:00+3nnw11651 0.0 103318
26 october, tue
tue2600:00+3wnw11640 0.0 103311
03:00+2nw11642 0.0 103312
06:00+2n11661 0.0 103214
09:00+5ene26573 0.0 1032410
12:00+8e45493 0.0 1031913
15:00+9e45410 0.0 1029866
18:00+5e24560 0.0 103098
21:00+4e12661 0.0 102919
27 october, wed
wed2700:00+3ese12730 0.0 102820
03:00+3e12810 0.0 102719
06:00+2se11860 0.0 102612
09:00+6se11720 0.0 1025100
12:00+11se22520 0.0 1024550
15:00+13se11440 0.0 1022771
18:00+8nnw11700 0.0 102313
21:00+6wnw11753 0.0 102310